Ravenna, OH

8:24 PM EDT on April 19, 2018 (GMT -0400)
Ravenna

Weather History for KPOV - January, 2013

Change the Weather History Date:

Tuesday, January 22, 2013

  Actual Average (KCAK) Record (KCAK)
Temperature  
Mean Temperature 7 °F -  
Max Temperature 9 °F 34 °F 72 °F (1906)
Min Temperature 5 °F 21 °F -13 °F (1936)
Degree Days  
Heating Degree Days 58    
Moisture  
Dew Point -1 °F    
Average Humidity 68    
Maximum Humidity 84    
Minimum Humidity 54    
Precipitation  
Precipitation 0.00 in - - ()
Sea Level Pressure  
Sea Level Pressure 30.15 in    
Wind  
Wind Speed 13 mph (West)    
Max Wind Speed 20 mph    
Max Gust Speed 25 mph    
Visibility 9 miles    
Events Snow    
Averages and records for this station are not official NWS values.
T = Trace of Precipitation, MM = Missing Value Source: NWS Daily Summary

Daily Weather History Graph

Daily Weather History Graph

Search for Another Location

Airport or City:

Trip Planner

Search our weather history database for the weather conditions in past years. The results will help you decide how hot, cold, wet, or windy it might be!

Date:

Astronomy

Jan. 22, 2013 Rise Set
Actual Time 7:44 AM EST 5:29 PM EST
Civil Twilight 7:14 AM EST 5:59 PM EST
Nautical Twilight 6:40 AM EST 6:33 PM EST
Astronomical Twilight 6:08 AM EST 7:05 PM EST
Moon 1:51 PM EST (1/22) 4:04 AM EST (1/22)
Length of Visible Light 10h 45m
Length of Day
9h 45m
Waxing Gibbous, 82% of the Moon is Illuminated
Jan 22
Waxing Gibbous
Jan 26
Full
Feb 3
Last Quarter
Feb 10
New
Feb 17
First Quarter

Hourly Weather History & Observations

Time (EST) Temp. Windchill Dew Point Humidity Pressure Visibility Wind Dir Wind Speed Gust Speed Precip Events Conditions
12:35 AM 8.4 °F -9.2 °F -2.2 °F 62% 30.03 in 10.0 mi West 16.1 mph 24.2 mph N/A   Clear
12:56 AM 8.2 °F -8.2 °F -2.4 °F 62% 30.03 in 10.0 mi West 13.8 mph 25.3 mph N/A   Clear
1:15 AM 7.9 °F -11.0 °F -2.6 °F 62% 30.03 in 10.0 mi West 18.4 mph 23.0 mph N/A   Clear
1:35 AM 7.7 °F -8.9 °F -1.1 °F 67% 30.03 in 10.0 mi West 13.8 mph 20.7 mph N/A   Clear
1:56 AM 7.7 °F -8.9 °F 0.5 °F 72% 30.04 in 7.0 mi WSW 13.8 mph 21.9 mph N/A Snow Light Snow
2:15 AM 7.5 °F -9.1 °F -0.4 °F 70% 30.04 in 10.0 mi WSW 13.8 mph 21.9 mph N/A   Mostly Cloudy
2:35 AM 7.3 °F -8.6 °F -2.2 °F 65% 30.05 in 10.0 mi WSW 12.7 mph 20.7 mph N/A   Clear
2:55 AM 7.3 °F -9.3 °F -1.8 °F 66% 30.05 in 10.0 mi WSW 13.8 mph 21.9 mph N/A   Scattered Clouds
3:15 AM 7.2 °F -7.3 °F -2.0 °F 66% 30.06 in 10.0 mi WSW 10.4 mph 21.9 mph N/A   Scattered Clouds
3:35 AM 6.8 °F -10.0 °F -1.8 °F 68% 30.06 in 10.0 mi WSW 13.8 mph 18.4 mph N/A   Clear
3:55 AM 6.8 °F -10.0 °F -2.4 °F 66% 30.06 in 10.0 mi WSW 13.8 mph 21.9 mph N/A   Clear
4:15 AM 6.6 °F -9.5 °F -2.7 °F 66% 30.06 in 10.0 mi WSW 12.7 mph 17.3 mph N/A   Clear
4:35 AM 6.6 °F -9.5 °F -2.7 °F 66% 30.07 in 10.0 mi WSW 12.7 mph 19.6 mph N/A   Clear
4:55 AM 6.4 °F -7.3 °F -2.6 °F 67% 30.07 in 10.0 mi West 9.2 mph 17.3 mph N/A   Scattered Clouds
5:15 AM 6.4 °F -10.5 °F -2.2 °F 68% 30.07 in 10.0 mi West 13.8 mph 18.4 mph N/A   Mostly Cloudy
5:35 AM 6.4 °F -8.2 °F -2.4 °F 67% 30.08 in 10.0 mi West 10.4 mph 20.7 mph N/A   Mostly Cloudy
5:55 AM 6.3 °F -8.4 °F -2.2 °F 68% 30.09 in 10.0 mi West 10.4 mph 21.9 mph N/A   Mostly Cloudy
6:15 AM 5.9 °F -9.7 °F -1.5 °F 72% 30.10 in 10.0 mi West 11.5 mph 20.7 mph N/A   Scattered Clouds
6:35 AM 5.9 °F -10.5 °F -1.3 °F 72% 30.11 in 10.0 mi West 12.7 mph - N/A   Scattered Clouds
6:55 AM 5.9 °F -11.8 °F -0.9 °F 73% 30.12 in 7.0 mi West 15.0 mph 18.4 mph N/A   Mostly Cloudy
7:15 AM 5.9 °F -9.7 °F -0.8 °F 74% 30.12 in 5.0 mi West 11.5 mph 17.3 mph N/A   Haze
7:56 AM 5.9 °F -11.2 °F -0.8 °F 74% 30.13 in 2.5 mi West 13.8 mph 19.6 mph N/A Snow Light Snow
8:15 AM 5.7 °F -13.2 °F -0.9 °F 74% 30.14 in 2.0 mi West 17.3 mph - N/A Snow Light Snow
8:35 AM 5.9 °F -10.5 °F -1.7 °F 71% 30.15 in 4.0 mi West 12.7 mph 20.7 mph N/A   Haze
8:55 AM 6.3 °F -9.2 °F -1.7 °F 70% 30.15 in 5.0 mi West 11.5 mph 17.3 mph N/A   Haze
9:15 AM 6.3 °F -9.2 °F -2.2 °F 68% 30.16 in 7.0 mi West 11.5 mph 18.4 mph N/A   Overcast
9:35 AM 7.7 °F -9.5 °F -1.8 °F 65% 30.18 in 10.0 mi WSW 15.0 mph 19.6 mph N/A   Overcast
9:55 AM 7.5 °F -11.9 °F -2.9 °F 62% 30.19 in 10.0 mi West 19.6 mph 25.3 mph N/A   Mostly Cloudy
10:15 AM 6.8 °F -10.7 °F -3.6 °F 62% 30.19 in 10.0 mi West 15.0 mph 24.2 mph N/A   Mostly Cloudy
10:35 AM 6.8 °F -10.7 °F -3.5 °F 63% 30.20 in 10.0 mi WNW 15.0 mph 20.7 mph N/A   Overcast
10:55 AM 7.9 °F -11.5 °F -4.7 °F 57% 30.20 in 10.0 mi West 19.6 mph - N/A   Overcast
11:15 AM 7.9 °F -6.4 °F 1.4 °F 75% 30.21 in 2.5 mi WNW 10.4 mph - N/A Snow Light Snow
11:35 AM 7.5 °F -9.1 °F -1.3 °F 67% 30.20 in 2.5 mi WNW 13.8 mph 20.7 mph N/A Snow Light Snow
11:56 AM 8.4 °F -7.9 °F -1.5 °F 64% 30.20 in 3.0 mi West 13.8 mph 19.6 mph N/A Snow Light Snow
12:15 PM 7.2 °F -8.1 °F -1.7 °F 67% 30.19 in 4.0 mi West 11.5 mph 16.1 mph N/A Snow Light Snow
12:35 PM 8.8 °F -8.7 °F -4.4 °F 55% 30.18 in 10.0 mi West 16.1 mph 24.2 mph N/A   Overcast
12:55 PM 7.7 °F -8.9 °F -2.2 °F 64% 30.18 in 5.0 mi West 13.8 mph - N/A   Haze
1:15 PM 8.4 °F -8.6 °F -5.3 °F 54% 30.17 in 7.0 mi West 15.0 mph 21.9 mph N/A   Overcast
1:35 PM 8.4 °F -7.3 °F -3.8 °F 58% 30.17 in 10.0 mi West 12.7 mph - N/A   Overcast
1:55 PM 8.4 °F -7.9 °F -5.1 °F 54% 30.16 in 10.0 mi West 13.8 mph - N/A   Overcast
2:15 PM 8.4 °F -8.6 °F -4.2 °F 57% 30.16 in 10.0 mi West 15.0 mph 19.6 mph N/A   Overcast
2:35 PM 8.6 °F -7.0 °F -4.9 °F 54% 30.16 in 10.0 mi WNW 12.7 mph 18.4 mph N/A   Overcast
2:55 PM 9.1 °F -7.0 °F -3.6 °F 56% 30.17 in 10.0 mi West 13.8 mph 20.7 mph N/A   Overcast
3:15 PM 9.3 °F -9.6 °F -3.6 °F 56% 30.18 in 10.0 mi West 19.6 mph 23.0 mph N/A   Overcast
3:35 PM 9.1 °F -7.0 °F -3.3 °F 57% 30.18 in 10.0 mi West 13.8 mph 24.2 mph N/A   Overcast
3:55 PM 9.5 °F -8.8 °F -2.6 °F 58% 30.19 in 10.0 mi West 18.4 mph 24.2 mph N/A   Overcast
4:15 PM 9.1 °F -8.2 °F -2.7 °F 59% 30.19 in 10.0 mi West 16.1 mph 21.9 mph N/A   Overcast
4:35 PM 9.3 °F -3.8 °F -2.7 °F 58% 30.19 in 10.0 mi West 9.2 mph - N/A   Overcast
4:56 PM 9.5 °F -5.2 °F -2.6 °F 58% 30.19 in 10.0 mi WSW 11.5 mph - N/A   Overcast
5:15 PM 9.0 °F -5.1 °F -2.9 °F 59% 30.19 in 10.0 mi West 10.4 mph - N/A   Mostly Cloudy
5:35 PM 8.4 °F -4.9 °F -2.2 °F 62% 30.19 in 10.0 mi West 9.2 mph 16.1 mph N/A   Scattered Clouds
5:56 PM 7.7 °F -2.4 °F -1.1 °F 67% 30.20 in 10.0 mi West 5.8 mph - N/A   Clear
6:15 PM 7.5 °F -5.0 °F -1.1 °F 68% 30.20 in 10.0 mi West 8.1 mph - N/A   Scattered Clouds
6:35 PM 7.2 °F -7.3 °F -0.4 °F 71% 30.22 in 10.0 mi West 10.4 mph - N/A   Scattered Clouds
6:55 PM 7.2 °F -4.3 °F 1.6 °F 78% 30.22 in 5.0 mi West 6.9 mph - N/A Snow Light Snow
7:15 PM 7.3 °F -2.8 °F 2.3 °F 80% 30.22 in 10.0 mi West 5.8 mph - N/A   Mostly Cloudy
7:35 PM 7.2 °F -4.3 °F 1.9 °F 79% 30.22 in 10.0 mi West 6.9 mph - N/A   Mostly Cloudy
7:55 PM 6.8 °F -4.8 °F 1.9 °F 80% 30.22 in 10.0 mi West 6.9 mph - N/A   Scattered Clouds
8:15 PM 6.6 °F -3.7 °F 1.8 °F 80% 30.22 in 10.0 mi West 5.8 mph - N/A   Clear
8:35 PM 6.6 °F -5.0 °F 1.8 °F 80% 30.22 in 10.0 mi West 6.9 mph - N/A   Clear
8:55 PM 6.4 °F -3.9 °F 2.1 °F 82% 30.22 in 10.0 mi WSW 5.8 mph - N/A   Scattered Clouds
9:15 PM 6.4 °F -5.2 °F 2.3 °F 83% 30.21 in 10.0 mi WSW 6.9 mph - N/A   Scattered Clouds
9:35 PM 6.4 °F -5.2 °F 2.1 °F 82% 30.21 in 10.0 mi WSW 6.9 mph - N/A   Clear
9:56 PM 6.3 °F -4.1 °F 1.9 °F 82% 30.21 in 10.0 mi WSW 5.8 mph - N/A   Clear
10:15 PM 5.9 °F -4.5 °F 1.9 °F 84% 30.21 in 10.0 mi WSW 5.8 mph - N/A   Clear
10:35 PM 5.9 °F -5.8 °F 1.4 °F 82% 30.21 in 10.0 mi West 6.9 mph - N/A   Clear
10:55 PM 6.3 °F -5.4 °F 1.0 °F 79% 30.21 in 10.0 mi WSW 6.9 mph - N/A   Clear
11:15 PM 6.3 °F -6.5 °F 0.1 °F 76% 30.21 in 10.0 mi WSW 8.1 mph - N/A   Clear
11:35 PM 6.3 °F -6.5 °F -0.4 °F 74% 30.21 in 10.0 mi WSW 8.1 mph - N/A   Clear
11:55 PM 6.1 °F -6.8 °F -0.8 °F 73% 30.21 in 10.0 mi WSW 8.1 mph - N/A   Clear